Liberty of The Seas — C6VQ8 — position and weather

sailwx.info

Track history (hours):
 
Tides and Currents Weather Stations Pressure Air Temp Water Temp Dewpoint Dewpoint Depression Visibility Wind Speed Wind Dir Waves Ship Positions

Liberty of The Seas

Last reported at 2014-Jul-25 18:33 UTC. Time now 2014-Jul-26 05:12 UTC.
Position N 40°39' E 013°49'.

Type: Passenger vessel. MMSI: 309436000.

Date/timePositionNaut miles runAvg speedWind from/ knotsBaromVisibWave heightAir tempDewpointWater temp
2014-Jul-25 18:33N 40°39' E 013°49'1615.6
2014-Jul-25 17:34N 40°42' E 014°09'10 0.7
2014-Jul-25 04:25N 40°49' E 014°17'1112.5
2014-Jul-25 03:33N 40°41' E 014°08'1515.3
2014-Jul-25 02:33N 40°39' E 013°48'1816.2
2014-Jul-25 01:28N 40°41' E 013°25'209 7.7
2014-Jul-23 22:20N 42°52' E 009°47'1316.1
2014-Jul-23 21:32N 43°02' E 009°37'3316.6
2014-Jul-23 19:33N 43°35' E 009°39'1816.9
2014-Jul-23 18:31N 43°51' E 009°50'1414.8
2014-Jul-23 17:33N 44°05' E 009°51'2 1.6
2014-Jul-23 16:34N 44°06' E 009°50'0 0.0
2014-Jul-23 15:31N 44°06' E 009°50'0 0.0
2014-Jul-23 14:34N 44°06' E 009°50'0 0.0
2014-Jul-23 13:34N 44°06' E 009°50'0 0.0
2014-Jul-23 12:30N 44°06' E 009°50'0 0.0
2014-Jul-23 11:34N 44°06' E 009°50'0 0.0
2014-Jul-23 10:34N 44°06' E 009°50'0 0.0
2014-Jul-23 09:34N 44°06' E 009°50'0 0.0
2014-Jul-23 08:34N 44°06' E 009°50'0 0.0
2014-Jul-23 07:34N 44°06' E 009°50'0 0.0
2014-Jul-23 06:34N 44°06' E 009°50'0 0.0
2014-Jul-23 05:34N 44°06' E 009°50'1 0.7
2014-Jul-23 04:33N 44°06' E 009°50'7 7.1
2014-Jul-23 03:33N 44°00' E 009°56'1010.4
2014-Jul-23 02:33N 43°57' E 009°43'1111.4
2014-Jul-23 01:33N 43°55' E 009°27'1111.1
2014-Jul-23 00:33N 43°54' E 009°12'1111.0
2014-Jul-22 23:33N 43°52' E 008°57'1211.6
2014-Jul-22 22:33N 43°50' E 008°41'1212.1
2014-Jul-22 21:33N 43°48' E 008°24'1211.7
2014-Jul-22 20:30N 43°46' E 008°08'2611.3
2014-Jul-22 18:13N 43°41' E 007°32'1011.0
2014-Jul-22 17:21N 43°40' E 007°19'2 1.7
2014-Jul-22 16:16N 43°41' E 007°19'0 0.0
2014-Jul-22 15:28N 43°41' E 007°19'0 0.0
2014-Jul-22 14:28N 43°41' E 007°19'0 0.0
2014-Jul-22 12:19N 43°41' E 007°19'0 0.0
2014-Jul-22 11:31N 43°41' E 007°19'0 0.0
2014-Jul-22 10:19N 43°41' E 007°19'0 0.0
2014-Jul-22 08:25N 43°41' E 007°19'0 0.0
2014-Jul-22 07:07N 43°41' E 007°19'0 0.0
2014-Jul-22 06:07N 43°41' E 007°19'0 0.0
2014-Jul-22 05:31N 43°41' E 007°19'0 0.0
2014-Jul-22 04:30N 43°41' E 007°19'8 8.4
2014-Jul-22 03:34N 43°34' E 007°18'1111.0
2014-Jul-22 02:34N 43°23' E 007°16'1211.5
2014-Jul-22 01:33N 43°12' E 007°09'1212.1
2014-Jul-22 00:33N 43°03' E 006°58'1212.0
2014-Jul-21 23:34N 42°54' E 006°48'3712.2
2014-Jul-21 20:33N 42°45' E 005°60'312.3
2014-Jul-21 20:17N 42°45' E 005°56'912.4
2014-Jul-21 19:33N 42°48' E 005°44'1812.1
2014-Jul-21 18:05N 42°59' E 005°24'913.7
2014-Jul-21 17:26N 43°07' E 005°21'1112.6
2014-Jul-21 16:33N 43°18' E 005°15'5 4.6
2014-Jul-21 15:33N 43°21' E 005°20'0 0.0
2014-Jul-21 14:33N 43°21' E 005°20'0 0.0
2014-Jul-21 13:33N 43°21' E 005°20'0 0.0
2014-Jul-21 12:30N 43°21' E 005°20'0 0.0
2014-Jul-21 11:33N 43°21' E 005°20'0 0.0
2014-Jul-21 10:30N 43°21' E 005°20'0 0.0
2014-Jul-21 09:27N 43°21' E 005°20'0 0.0
2014-Jul-21 08:30N 43°21' E 005°20'0 0.0
2014-Jul-21 07:33N 43°21' E 005°20'0 0.3
2014-Jul-21 06:33N 43°21' E 005°20'10 9.9
2014-Jul-21 05:33N 43°15' E 005°09'4414.3
2014-Jul-21 02:30N 42°56' E 004°15'1514.3
2014-Jul-21 01:26N 42°49' E 003°56'1214.2
2014-Jul-21 00:33N 42°40' E 003°44'1514.5
2014-Jul-20 23:33N 42°26' E 003°38'1313.2
2014-Jul-20 22:33N 42°14' E 003°32'1512.3
2014-Jul-20 21:22N 42°00' E 003°25'1212.8
2014-Jul-20 20:28N 41°49' E 003°19'1211.9
2014-Jul-20 19:29N 41°41' E 003°08'2912.9
2014-Jul-20 17:16N 41°27' E 002°35'1014.4
2014-Jul-20 16:33N 41°21' E 002°23'1010.1
2014-Jul-20 15:33N 41°19' E 002°10'2 1.0
2014-Jul-20 13:26N 41°22' E 002°11'0 0.0
2014-Jul-20 11:26N 41°22' E 002°11'0 0.0
2014-Jul-20 10:32N 41°22' E 002°11'0 0.0
2014-Jul-20 09:08N 41°22' E 002°11'0 0.0
2014-Jul-20 08:26N 41°22' E 002°11'0 0.0
2014-Jul-20 07:26N 41°22' E 002°11'0 0.0
2014-Jul-20 06:26N 41°22' E 002°11'0 0.0
2014-Jul-20 05:26N 41°22' E 002°11'0 0.0
2014-Jul-20 04:26N 41°22' E 002°11'0 0.2
2014-Jul-20 03:33N 41°21' E 002°11'9 7.7
2014-Jul-20 02:23N 41°16' E 002°20'1214.5
2014-Jul-20 01:34N 41°16' E 002°36'1515.0
2014-Jul-20 00:33N 41°16' E 002°56'1616.1
2014-Jul-19 23:33N 41°16' E 003°17'1815.7
2014-Jul-19 22:24N 41°16' E 003°41'1315.8
2014-Jul-19 21:33N 41°16' E 003°59'3716.2
2014-Jul-19 19:15N 41°16' E 004°48'1115.8
2014-Jul-19 18:33N 41°17' E 005°03'1615.4
2014-Jul-19 17:32N 41°17' E 005°24'1615.9
2014-Jul-19 16:33N 41°17' E 005°45'1716.7
2014-Jul-19 15:31N 41°17' E 006°08'1817.8
2014-Jul-19 14:30N 41°17' E 006°32'1717.4
2014-Jul-19 13:31N 41°17' E 006°55'2116.0
2014-Jul-19 12:11N 41°17' E 007°23'1116.9
2014-Jul-19 11:33N 41°18' E 007°37'1717.0
2014-Jul-19 10:33N 41°18' E 007°60'1916.8
2014-Jul-19 09:24N 41°18' E 008°25'6616.4
2014-Jul-19 05:24N 41°18' E 009°53'1516.4
2014-Jul-19 04:29N 41°15' E 010°12'1617.3
2014-Jul-19 03:33N 41°12' E 010°33'1716.5
2014-Jul-19 02:32N 41°08' E 010°55'1615.9
2014-Jul-19 01:31N 41°04' E 011°16'1616.2
2014-Jul-19 00:33N 40°60' E 011°36'8416.9
2014-Jul-18 19:33N 40°41' E 013°24'1717.1
2014-Jul-18 18:32N 40°38' E 013°47'1616.4
2014-Jul-18 17:34N 40°42' E 014°08'10 1.9
2014-Jul-18 12:09N 40°50' E 014°16'1 0.1
2014-Jul-18 04:25N 40°50' E 014°17'1214.0
2014-Jul-18 03:33N 40°39' E 014°09'1615.9
2014-Jul-18 02:32N 40°39' E 013°47'1616.0
2014-Jul-18 01:33N 40°42' E 013°27'153 6.3
2014-Jul-17 01:24N 42°18' E 010°47'8316.1
2014-Jul-16 20:17N 43°20' E 009°33'1317.5
2014-Jul-16 19:32N 43°32' E 009°37'1817.7
2014-Jul-16 18:31N 43°49' E 009°46'1515.7
2014-Jul-16 17:34N 44°04' E 009°51'3 2.6
2014-Jul-16 16:31N 44°06' E 009°50'0 0.0
2014-Jul-16 15:31N 44°06' E 009°50'0 0.0
2014-Jul-16 14:31N 44°06' E 009°50'0 0.0
2014-Jul-16 13:31N 44°06' E 009°50'0 0.0
2014-Jul-16 12:28N 44°06' E 009°50'0 0.0
2014-Jul-16 11:28N 44°06' E 009°50'0 0.0
2014-Jul-16 10:31N 44°06' E 009°50'0 0.0
2014-Jul-16 09:31N 44°06' E 009°50'0 0.0
2014-Jul-16 08:31N 44°06' E 009°50'0 0.0
2014-Jul-16 07:31N 44°06' E 009°50'0 0.0
2014-Jul-16 06:28N 44°06' E 009°50'0 0.0
2014-Jul-16 05:31N 44°06' E 009°50'1 1.0
2014-Jul-16 04:33N 44°05' E 009°50'7 7.0
2014-Jul-16 03:33N 43°59' E 009°55'1414.4
2014-Jul-16 02:33N 43°56' E 009°35'1414.3
2014-Jul-16 01:33N 43°55' E 009°15'1414.4
2014-Jul-16 00:33N 43°53' E 008°55'4 3.7
2014-Jul-15 23:33N 43°50' E 008°55'1212.1
2014-Jul-15 22:33N 43°49' E 008°38'1711.5
2014-Jul-15 21:06N 43°47' E 008°15'711.5
2014-Jul-15 20:29N 43°46' E 008°05'1411.3
2014-Jul-15 19:12N 43°43' E 007°46'  
Track history (hours):
 
Tides and Currents Weather Stations Pressure Air Temp Water Temp Dewpoint Dewpoint Depression Visibility Wind Speed Wind Dir Waves Ship Positions

Liberty of The Seas

Last reported at 2014-Jul-25 18:33 UTC. Time now 2014-Jul-26 05:12 UTC.
Position N 40°39' E 013°49'.

Type: Passenger vessel. MMSI: 309436000.

Date/timePositionNaut miles runAvg speedWind from/ knotsBaromVisibWave heightAir tempDewpointWater temp
2014-Jul-25 18:33N 40°39' E 013°49'1615.6
2014-Jul-25 17:34N 40°42' E 014°09'10 0.7
2014-Jul-25 04:25N 40°49' E 014°17'1112.5
2014-Jul-25 03:33N 40°41' E 014°08'1515.3
2014-Jul-25 02:33N 40°39' E 013°48'1816.2
2014-Jul-25 01:28N 40°41' E 013°25'209 7.7
2014-Jul-23 22:20N 42°52' E 009°47'1316.1
2014-Jul-23 21:32N 43°02' E 009°37'3316.6
2014-Jul-23 19:33N 43°35' E 009°39'1816.9
2014-Jul-23 18:31N 43°51' E 009°50'1414.8
2014-Jul-23 17:33N 44°05' E 009°51'2 1.6
2014-Jul-23 16:34N 44°06' E 009°50'0 0.0
2014-Jul-23 15:31N 44°06' E 009°50'0 0.0
2014-Jul-23 14:34N 44°06' E 009°50'0 0.0
2014-Jul-23 13:34N 44°06' E 009°50'0 0.0
2014-Jul-23 12:30N 44°06' E 009°50'0 0.0
2014-Jul-23 11:34N 44°06' E 009°50'0 0.0
2014-Jul-23 10:34N 44°06' E 009°50'0 0.0
2014-Jul-23 09:34N 44°06' E 009°50'0 0.0
2014-Jul-23 08:34N 44°06' E 009°50'0 0.0
2014-Jul-23 07:34N 44°06' E 009°50'0 0.0
2014-Jul-23 06:34N 44°06' E 009°50'0 0.0
2014-Jul-23 05:34N 44°06' E 009°50'1 0.7
2014-Jul-23 04:33N 44°06' E 009°50'7 7.1
2014-Jul-23 03:33N 44°00' E 009°56'1010.4
2014-Jul-23 02:33N 43°57' E 009°43'1111.4
2014-Jul-23 01:33N 43°55' E 009°27'1111.1
2014-Jul-23 00:33N 43°54' E 009°12'1111.0
2014-Jul-22 23:33N 43°52' E 008°57'1211.6
2014-Jul-22 22:33N 43°50' E 008°41'1212.1
2014-Jul-22 21:33N 43°48' E 008°24'1211.7
2014-Jul-22 20:30N 43°46' E 008°08'2611.3
2014-Jul-22 18:13N 43°41' E 007°32'1011.0
2014-Jul-22 17:21N 43°40' E 007°19'2 1.7
2014-Jul-22 16:16N 43°41' E 007°19'0 0.0
2014-Jul-22 15:28N 43°41' E 007°19'0 0.0
2014-Jul-22 14:28N 43°41' E 007°19'0 0.0
2014-Jul-22 12:19N 43°41' E 007°19'0 0.0
2014-Jul-22 11:31N 43°41' E 007°19'0 0.0
2014-Jul-22 10:19N 43°41' E 007°19'0 0.0
2014-Jul-22 08:25N 43°41' E 007°19'0 0.0
2014-Jul-22 07:07N 43°41' E 007°19'0 0.0
2014-Jul-22 06:07N 43°41' E 007°19'0 0.0
2014-Jul-22 05:31N 43°41' E 007°19'0 0.0
2014-Jul-22 04:30N 43°41' E 007°19'8 8.4
2014-Jul-22 03:34N 43°34' E 007°18'1111.0
2014-Jul-22 02:34N 43°23' E 007°16'1211.5
2014-Jul-22 01:33N 43°12' E 007°09'1212.1
2014-Jul-22 00:33N 43°03' E 006°58'1212.0
2014-Jul-21 23:34N 42°54' E 006°48'3712.2
2014-Jul-21 20:33N 42°45' E 005°60'312.3
2014-Jul-21 20:17N 42°45' E 005°56'912.4
2014-Jul-21 19:33N 42°48' E 005°44'1812.1
2014-Jul-21 18:05N 42°59' E 005°24'913.7
2014-Jul-21 17:26N 43°07' E 005°21'1112.6
2014-Jul-21 16:33N 43°18' E 005°15'5 4.6
2014-Jul-21 15:33N 43°21' E 005°20'0 0.0
2014-Jul-21 14:33N 43°21' E 005°20'0 0.0
2014-Jul-21 13:33N 43°21' E 005°20'0 0.0
2014-Jul-21 12:30N 43°21' E 005°20'0 0.0
2014-Jul-21 11:33N 43°21' E 005°20'0 0.0
2014-Jul-21 10:30N 43°21' E 005°20'0 0.0
2014-Jul-21 09:27N 43°21' E 005°20'0 0.0
2014-Jul-21 08:30N 43°21' E 005°20'0 0.0
2014-Jul-21 07:33N 43°21' E 005°20'0 0.3
2014-Jul-21 06:33N 43°21' E 005°20'10 9.9
2014-Jul-21 05:33N 43°15' E 005°09'4414.3
2014-Jul-21 02:30N 42°56' E 004°15'1514.3
2014-Jul-21 01:26N 42°49' E 003°56'1214.2
2014-Jul-21 00:33N 42°40' E 003°44'1514.5
2014-Jul-20 23:33N 42°26' E 003°38'1313.2
2014-Jul-20 22:33N 42°14' E 003°32'1512.3
2014-Jul-20 21:22N 42°00' E 003°25'1212.8
2014-Jul-20 20:28N 41°49' E 003°19'1211.9
2014-Jul-20 19:29N 41°41' E 003°08'2912.9
2014-Jul-20 17:16N 41°27' E 002°35'1014.4
2014-Jul-20 16:33N 41°21' E 002°23'1010.1
2014-Jul-20 15:33N 41°19' E 002°10'2 1.0
2014-Jul-20 13:26N 41°22' E 002°11'0 0.0
2014-Jul-20 11:26N 41°22' E 002°11'0 0.0
2014-Jul-20 10:32N 41°22' E 002°11'0 0.0
2014-Jul-20 09:08N 41°22' E 002°11'0 0.0
2014-Jul-20 08:26N 41°22' E 002°11'0 0.0
2014-Jul-20 07:26N 41°22' E 002°11'0 0.0
2014-Jul-20 06:26N 41°22' E 002°11'0 0.0
2014-Jul-20 05:26N 41°22' E 002°11'0 0.0
2014-Jul-20 04:26N 41°22' E 002°11'0 0.2
2014-Jul-20 03:33N 41°21' E 002°11'9 7.7
2014-Jul-20 02:23N 41°16' E 002°20'1214.5
2014-Jul-20 01:34N 41°16' E 002°36'1515.0
2014-Jul-20 00:33N 41°16' E 002°56'1616.1
2014-Jul-19 23:33N 41°16' E 003°17'1815.7
2014-Jul-19 22:24N 41°16' E 003°41'1315.8
2014-Jul-19 21:33N 41°16' E 003°59'3716.2
2014-Jul-19 19:15N 41°16' E 004°48'1115.8
2014-Jul-19 18:33N 41°17' E 005°03'1615.4
2014-Jul-19 17:32N 41°17' E 005°24'1615.9
2014-Jul-19 16:33N 41°17' E 005°45'1716.7
2014-Jul-19 15:31N 41°17' E 006°08'1817.8
2014-Jul-19 14:30N 41°17' E 006°32'1717.4
2014-Jul-19 13:31N 41°17' E 006°55'2116.0
2014-Jul-19 12:11N 41°17' E 007°23'1116.9
2014-Jul-19 11:33N 41°18' E 007°37'1717.0
2014-Jul-19 10:33N 41°18' E 007°60'1916.8
2014-Jul-19 09:24N 41°18' E 008°25'6616.4
2014-Jul-19 05:24N 41°18' E 009°53'1516.4
2014-Jul-19 04:29N 41°15' E 010°12'1617.3
2014-Jul-19 03:33N 41°12' E 010°33'1716.5
2014-Jul-19 02:32N 41°08' E 010°55'1615.9
2014-Jul-19 01:31N 41°04' E 011°16'1616.2
2014-Jul-19 00:33N 40°60' E 011°36'8416.9
2014-Jul-18 19:33N 40°41' E 013°24'1717.1
2014-Jul-18 18:32N 40°38' E 013°47'1616.4
2014-Jul-18 17:34N 40°42' E 014°08'10 1.9
2014-Jul-18 12:09N 40°50' E 014°16'1 0.1
2014-Jul-18 04:25N 40°50' E 014°17'1214.0
2014-Jul-18 03:33N 40°39' E 014°09'1615.9
2014-Jul-18 02:32N 40°39' E 013°47'1616.0
2014-Jul-18 01:33N 40°42' E 013°27'153 6.3
2014-Jul-17 01:24N 42°18' E 010°47'8316.1
2014-Jul-16 20:17N 43°20' E 009°33'1317.5
2014-Jul-16 19:32N 43°32' E 009°37'1817.7
2014-Jul-16 18:31N 43°49' E 009°46'1515.7
2014-Jul-16 17:34N 44°04' E 009°51'3 2.6
2014-Jul-16 16:31N 44°06' E 009°50'0 0.0
2014-Jul-16 15:31N 44°06' E 009°50'0 0.0
2014-Jul-16 14:31N 44°06' E 009°50'0 0.0
2014-Jul-16 13:31N 44°06' E 009°50'0 0.0
2014-Jul-16 12:28N 44°06' E 009°50'0 0.0
2014-Jul-16 11:28N 44°06' E 009°50'0 0.0
2014-Jul-16 10:31N 44°06' E 009°50'0 0.0
2014-Jul-16 09:31N 44°06' E 009°50'0 0.0
2014-Jul-16 08:31N 44°06' E 009°50'0 0.0
2014-Jul-16 07:31N 44°06' E 009°50'0 0.0
2014-Jul-16 06:28N 44°06' E 009°50'0 0.0
2014-Jul-16 05:31N 44°06' E 009°50'1 1.0
2014-Jul-16 04:33N 44°05' E 009°50'7 7.0
2014-Jul-16 03:33N 43°59' E 009°55'1414.4
2014-Jul-16 02:33N 43°56' E 009°35'1414.3
2014-Jul-16 01:33N 43°55' E 009°15'1414.4
2014-Jul-16 00:33N 43°53' E 008°55'4 3.7
2014-Jul-15 23:33N 43°50' E 008°55'1212.1
2014-Jul-15 22:33N 43°49' E 008°38'1711.5
2014-Jul-15 21:06N 43°47' E 008°15'711.5
2014-Jul-15 20:29N 43°46' E 008°05'1411.3
2014-Jul-15 19:12N 43°43' E 007°46'  

Dump ship's entire track history